This is the latest recevied weather packets stored in our database for station/object IU4KCH-20. If no packets are shown the sender has not sent any weather packets the latest 10 day(s).
| Time | Temp. | Humidity | Pressure | Rain* | Wind** | Luminosity | Snow |
|---|---|---|---|---|---|---|---|
| 1777911393 | 28.33° C | 28% | 1011.8 hPa | - | - | - | - |
| 1777909592 | 29.44° C | 27% | 1011.9 hPa | - | - | - | - |
| 1777908689 | 30° C | 26% | 1012.1 hPa | - | - | - | - |
| 1777906887 | 28.89° C | 28% | 1012.2 hPa | - | - | - | - |
| 1777905082 | 31.11° C | 25% | 1012.2 hPa | - | - | - | - |
| 1777904179 | 32.22° C | 23% | 1012.3 hPa | - | - | - | - |
| 1777903277 | 35.56° C | 20% | 1012.5 hPa | - | - | - | - |
| 1777902378 | 32.78° C | 21% | 1012.6 hPa | - | - | - | - |
| 1777901475 | 35.56° C | 19% | 1012.9 hPa | - | - | - | - |
| 1777900574 | 34.44° C | 20% | 1013 hPa | - | - | - | - |
| 1777899672 | 35.56° C | 20% | 1013.1 hPa | - | - | - | - |
| 1777898771 | 32.78° C | 23% | 1013.1 hPa | - | - | - | - |
| 1777897869 | 30° C | 25% | 1013.3 hPa | - | - | - | - |
| 1777896968 | 33.89° C | 22% | 1013.4 hPa | - | - | - | - |
| 1777895165 | 27.22° C | 32% | 1013.7 hPa | - | - | - | - |
| 1777894263 | 26.67° C | 30% | 1013.6 hPa | - | - | - | - |
| 1777892461 | 26.11° C | 31% | 1014 hPa | - | - | - | - |
| 1777891559 | 26.67° C | 30% | 1014.2 hPa | - | - | - | - |
| 1777890699 | 26.11° C | 34% | 1014.4 hPa | - | - | - | - |
| 1777890657 | 26.11° C | 34% | 1014.4 hPa | - | - | - | - |
| 1777889756 | 23.89° C | 34% | 1014.6 hPa | - | - | - | - |
| 1777888855 | 22.78° C | 33% | 1014.7 hPa | - | - | - | - |
| 1777887954 | 22.78° C | 36% | 1014.7 hPa | - | - | - | - |
| 1777887052 | 22.78° C | 36% | 1014.7 hPa | - | - | - | - |
| 1777886151 | 22.22° C | 35% | 1014.7 hPa | - | - | - | - |
* Rain since midnight (hover to see other rain measurements)
** Current wind speed in m/s (hover to see current wind gust speed)